, TX

(GMT )
Brazos 451

Weather History for KBQX - January, 2014

Change the Weather History Date:

Tuesday, January 14, 2014

  Actual Average Record
Temperature  
Mean Temperature - -  
Max Temperature - - - ()
Min Temperature - - - ()
Moisture  
Dew Point -    
Average Humidity    
Maximum Humidity    
Minimum Humidity    
Precipitation  
Precipitation 0.00 in - - ()
Sea Level Pressure  
Sea Level Pressure 30.13 in    
Wind  
Wind Speed 7 mph (South)    
Max Wind Speed 18 mph    
Max Gust Speed -    
Visibility 10 miles    
Events      
Averages and records for this station are not official NWS values.
T = Trace of Precipitation, MM = Missing Value Source: NWS Daily Summary

Daily Weather History Graph

Daily Weather History Graph

Search for Another Location

Airport or City:

Trip Planner

Search our weather history database for the weather conditions in past years. The results will help you decide how hot, cold, wet, or windy it might be!

Date:

Astronomy

Jan. 14, 2014 Rise Set
Actual Time 7:16 AM CST 5:47 PM CST
Civil Twilight 6:51 AM CST 6:13 PM CST
Nautical Twilight 6:22 AM CST 6:42 PM CST
Astronomical Twilight 5:53 AM CST 7:10 PM CST
Moon 4:51 PM CST (1/14) 5:53 AM CST (1/14)
Length of Visible Light 11h 22m
Length of Day
10h 31m
Waxing Gibbous, 98% of the Moon is Illuminated
Jan 14
Waxing Gibbous
Jan 15
Full
Jan 23
Last Quarter
Jan 30
New
Feb 6
First Quarter

Hourly Weather History & Observations

Time (CST) Temp. Dew Point Humidity Pressure Visibility Wind Dir Wind Speed Gust Speed Precip Events Conditions
12:15 AM - - N/A% 30.15 in 10.0 mi NNW 6.9 mph - N/A   Clear
12:35 AM - - N/A% 30.14 in 10.0 mi North 6.9 mph - N/A   Clear
12:55 AM - - N/A% 30.14 in 10.0 mi North 6.9 mph - N/A   Clear
1:15 AM - - N/A% 30.14 in 10.0 mi North 5.8 mph - N/A   Clear
1:35 AM - - N/A% 30.13 in 10.0 mi North 5.8 mph - N/A   Clear
1:55 AM - - N/A% 30.13 in 10.0 mi North 5.8 mph - N/A   Clear
2:15 AM - - N/A% 30.12 in 10.0 mi NNE 4.6 mph - N/A   Clear
2:35 AM - - N/A% 30.13 in 10.0 mi North 4.6 mph - N/A   Clear
2:55 AM - - N/A% 30.12 in 10.0 mi NNE 5.8 mph - N/A   Clear
3:15 AM - - N/A% 30.12 in 10.0 mi NNE 4.6 mph - N/A   Clear
3:35 AM - - N/A% 30.10 in 10.0 mi ENE 5.8 mph - N/A   Clear
3:55 AM - - N/A% 30.10 in 10.0 mi ENE 4.6 mph - N/A   Clear
4:15 AM - - N/A% 30.09 in 10.0 mi Variable 4.6 mph - N/A   Clear
4:35 AM - - N/A% 30.10 in 10.0 mi East 4.6 mph - N/A   Clear
4:55 AM - - N/A% 30.10 in 10.0 mi Calm Calm - N/A   Clear
5:15 AM - - N/A% 30.10 in 10.0 mi Variable 4.6 mph - N/A   Clear
5:35 AM - - N/A% 30.10 in 10.0 mi Variable 5.8 mph - N/A   Clear
5:55 AM - - N/A% 30.10 in 10.0 mi East 5.8 mph - N/A   Clear
6:15 AM - - N/A% 30.10 in 10.0 mi ESE 3.5 mph - N/A   Clear
6:35 AM - - N/A% 30.11 in 10.0 mi Variable 3.5 mph - N/A   Clear
6:55 AM - - N/A% 30.11 in 10.0 mi ESE 3.5 mph - N/A   Clear
7:15 AM - - N/A% 30.12 in 10.0 mi ESE 5.8 mph - N/A   Clear
7:35 AM - - N/A% 30.13 in 10.0 mi SE 5.8 mph - N/A   Clear
7:55 AM - - N/A% 30.14 in 10.0 mi SE 4.6 mph - N/A   Clear
8:15 AM - - N/A% 30.15 in 10.0 mi Calm Calm - N/A   Clear
8:35 AM - - N/A% 30.16 in 10.0 mi SSE 4.6 mph - N/A   Clear
8:55 AM - - N/A% 30.16 in 10.0 mi Calm Calm - N/A   Clear
9:15 AM - - N/A% 30.17 in 10.0 mi South 5.8 mph - N/A   Clear
9:35 AM - - N/A% 30.17 in 10.0 mi South 6.9 mph - N/A   Clear
9:55 AM - - N/A% 30.17 in 10.0 mi South 8.1 mph - N/A   Clear
10:15 AM - - N/A% 30.18 in 10.0 mi South 5.8 mph - N/A   Clear
10:35 AM - - N/A% 30.18 in 10.0 mi SSE 4.6 mph - N/A   Clear
10:55 AM - - N/A% 30.17 in 10.0 mi SSE 5.8 mph - N/A   Clear
11:15 AM - - N/A% 30.16 in 10.0 mi SSE 6.9 mph - N/A   Clear
11:35 AM - - N/A% 30.15 in 10.0 mi South 6.9 mph - N/A   Clear
11:55 AM - - N/A% 30.14 in 10.0 mi South 8.1 mph - N/A   Clear
12:15 PM - - N/A% 30.14 in 10.0 mi South 8.1 mph - N/A   Clear
12:35 PM - - N/A% 30.13 in 10.0 mi South 9.2 mph - N/A   Clear
12:55 PM - - N/A% 30.11 in 10.0 mi South 9.2 mph - N/A   Clear
1:15 PM - - N/A% 30.10 in 10.0 mi South 9.2 mph - N/A   Clear
1:35 PM - - N/A% 30.10 in 10.0 mi SSW 9.2 mph - N/A   Clear
1:55 PM - - N/A% 30.09 in 10.0 mi SSW 9.2 mph - N/A   Clear
2:15 PM - - N/A% 30.09 in 10.0 mi SSW 10.4 mph - N/A   Clear
2:35 PM - - N/A% 30.08 in 10.0 mi SSW 10.4 mph - N/A   Clear
2:55 PM - - N/A% 30.08 in 10.0 mi SSW 10.4 mph - N/A   Clear
3:15 PM - - N/A% 30.08 in 10.0 mi SSW 10.4 mph - N/A   Clear
3:35 PM - - N/A% 30.08 in 10.0 mi SSW 9.2 mph - N/A   Clear
3:55 PM - - N/A% 30.09 in 10.0 mi SSW 11.5 mph - N/A   Clear
4:15 PM - - N/A% 30.09 in 10.0 mi SSW 10.4 mph - N/A   Clear
4:35 PM - - N/A% 30.09 in 10.0 mi SSW 9.2 mph - N/A   Clear
4:55 PM - - N/A% 30.08 in 10.0 mi SSW 10.4 mph - N/A   Clear
5:15 PM - - N/A% 30.08 in 10.0 mi SSW 12.7 mph - N/A   Clear
5:35 PM - - N/A% 30.10 in 10.0 mi SSW 9.2 mph - N/A   Clear
5:55 PM - - N/A% 30.10 in 10.0 mi SSW 10.4 mph - N/A   Clear
6:15 PM - - N/A% 30.10 in 10.0 mi SSW 11.5 mph - N/A   Clear
6:35 PM - - N/A% 30.11 in 10.0 mi SSW 10.4 mph - N/A   Clear
6:55 PM - - N/A% 30.11 in 10.0 mi SSW 11.5 mph - N/A   Clear
7:15 PM - - N/A% 30.11 in 10.0 mi South 12.7 mph - N/A   Scattered Clouds
7:35 PM - - N/A% 30.12 in 10.0 mi South 12.7 mph - N/A   Overcast
7:55 PM - - N/A% 30.12 in 10.0 mi South 13.8 mph - N/A   Overcast
8:15 PM - - N/A% 30.13 in 10.0 mi South 12.7 mph - N/A   Scattered Clouds
8:35 PM - - N/A% 30.14 in 10.0 mi South 12.7 mph - N/A   Clear
8:55 PM - - N/A% 30.14 in 10.0 mi South 12.7 mph - N/A   Partly Cloudy
9:15 PM - - N/A% 30.14 in 10.0 mi South 13.8 mph - N/A   Clear
9:35 PM - - N/A% 30.14 in 10.0 mi South 13.8 mph - N/A   Clear
9:55 PM - - N/A% 30.14 in 10.0 mi SSW 13.8 mph - N/A   Clear
10:15 PM - - N/A% 30.15 in 10.0 mi SSW 12.7 mph - N/A   Clear
10:35 PM - - N/A% 30.16 in 10.0 mi SW 12.7 mph - N/A   Clear
10:55 PM - - N/A% 30.17 in 10.0 mi West 12.7 mph - N/A   Clear
11:15 PM - - N/A% 30.17 in 10.0 mi WNW 18.4 mph - N/A   Partly Cloudy
11:35 PM - - N/A% 30.18 in 10.0 mi NW 16.1 mph - N/A   Clear
11:55 PM - - N/A% 30.18 in 10.0 mi NW 17.3 mph - N/A   Clear